Weather in Severnoye

Russia / Kostroma Oblast     58°02′00″N   41°26′01″E
temp.,
°C
wind,
m/s
gust,
m/s
humid.,
%
clouds,
%
prec.,
mm/h
press.,
hPa
HPBL,
m
17 may, mon
mon1700:00+12wsw28952 0.0 1013151
03:00+11wsw22960 0.0 101531
06:00+14sw129019 0.0 101679
09:00+19ssw0169100 0.0 1016465
12:00+23ssw235079 0.0 10171430
15:00+24s12465 0.0 10161720
18:00+23ese236298 0.0 1015142
21:00+17e388287 0.0 1016140
18 may, tue
tue1800:00+16ese41383100 0.4 1016289
03:00+14ese41193100 0.6 1015225
06:00+16ese4109290 0.0 1016259
09:00+21se51072100 0.0 1016474
12:00+24se595793 0.0 1015705
15:00+26se585290 0.0 10151285
18:00+25se41061100 0.0 10141068
21:00+19ese414787 0.0 1014414
19 may, wed
wed1900:00+19se516835 0.0 1014538
03:00+17ese515903 0.0 1014408
06:00+18ese515826 0.0 1014479
09:00+23se5105863 0.0 1014591
12:00+26se610430 0.0 10131070
15:00+28se610431 0.0 10131869
18:00+25se511540 0.0 10131218
21:00+20se514690 0.0 1013686
20 may, thu
thu2000:00+17se515720 0.0 1013484
03:00+16se515780 0.0 1012406
06:00+17ese412780 0.0 1012390
09:00+22se59590 0.0 1012760
12:00+25se711460 0.0 10101979
15:00+25se612486 0.0 10092377
18:00+22se6135813 0.0 10091821
21:00+18se412695 0.1 1008803
21 may, fri
fri2100:00+16se5127513 0.0 1008839
03:00+13se4109463 0.0 1008386
06:00+14se4108852 0.0 1007449
09:00+18s696699 0.0 10071220
12:00+19s6105380 0.0 10071560
15:00+16s5976100 0.9 10071107
18:00+14s488340 1.3 1006690
21:00+12s5118827 2.1 1006833